EHI
0 0 0 0 0 0 0 0 0 0 0 0 0 0 0 0 0 0 0 0 0 0 0 0 0 0 0 0 0 0 0 0 0 0 0 0 0 0 0 0 0 0 0
0 0 0 0 0 0 0 0 0 0 0 0 0 0 0 0 0 0 0 0 0 0 0 0 0 0 0 0 0 0 0 0 0 0 0 0 0 0 0 0 0 0 0
0 0 0 0 0 0 0 0 0 0 0 0 0 0 0 0 0 0 0 0 0 0 0 0 0 0 0 0 0 0 0 0 0 0 0 0 0 0 0 0 0 0 0
0 0 0 0 0 0 0 0 0 0 0 0 0 0 0 0 0 0 0 0 0 0 0 0 0 0 0 0 0 0 0 0 0 0 0 0 0 0 0 0 0 0 0
1 0 0 0 0 0 0 0 0 0 0 0 0 0 0 0 0 0 0 0 0 0 0 0 0 0 0 0 0 0 0 0 0 0 0 0 0 0 0 0 0 0 0
2 1 0 0 1 1 1 0 0 0 0 0 0 0 0 0 0 0 0 0 0 0 0 0 0 0 0 0 0 0 0 0 0 0 0 0 0 0 0 0 0 0 0
4 3 2 2 3 4 1 0 0 0 0 0 0 0 0 0 0 0 0 0 0 0 0 0 0 0 0 0 0 0 0 0 0 0 0 0 0 0 0 0 0 0 0
6 6 5 5 5 4 2 1 0 0 0 0 0 0 0 0 0 0 0 0 0 0 0 0 0 0 0 0 0 0 0 0 0 0 0 0 0 0 0 0 0 0 0
6 7 6 6 5 3 2 1 0 0 0 0 0 0 0 0 0 0 0 0 0 0 0 0 0 0 0 0 0 0 0 0 0 0 0 0 0 0 0 0 0 0 0
6 7 7 6 5 3 2 1 0 0 0 0 0 0 0 0 0 0 0 0 0 0 0 0 0 0 0 0 0 0 0 0 0 0 0 0 0 0 0 0 0 0 0
9 9 9 9 7 5 2 1 1 0 0 0 0 0 0 0 0 0 0 0 0 0 0 0 0 0 0 0 0 0 0 0 0 0 0 0 0 0 0 0 0 0 0
9 9 10 11 10 8 5 2 1 0 0 0 0 0 1 1 0 0 0 0 0 0 0 0 0 0 0 0 0 0 0 0 0 0 0 0 0 0 0 0 0 0 0
5 5 6 7 8 8 5 2 1 0 0 0 0 0 1 1 0 0 0 0 0 0 0 0 0 0 0 0 0 0 0 0 0 0 0 0 0 0 0 0 0 0 0
2 1 1 2 3 3 2 1 0 0 0 0 0 0 1 1 0 0 0 0 0 0 0 0 0 0 0 0 0 0 0 0 0 0 0 0 0 0 0 0 0 0 0
1 0 0 0 0 0 0 0 0 0 0 0 0 0 0 0 0 0 0 0 0 0 0 0 0 0 0 0 0 0 0 0 0 0 0 0 0 0 0 0 0 0 0
0 0 0 0 0 0 0 0 0 0 0 0 0 0 0 0 0 0 0 0 0 0 0 0 0 0 0 0 0 0 0 0 0 0 0 0 0 0 0 0 0 0 0
0 0 0 0 0 0 0 0 0 0 0 0 0 0 0 0 0 0 0 0 0 0 0 0 0 0 0 0 0 0 0 0 0 0 0 0 0 0 0 0 0 0 0
0 0 0 0 0 0 0 0 0 0 0 0 0 0 0 0 0 0 0 0 0 0 0 0 0 0 0 0 0 0 0 0 0 0 0 0 0 0 0 0 0 0 0
0 0 0 0 0 0 0 0 0 0 0 0 0 0 0 0 0 0 0 0 0 0 0 0 0 0 0 0 0 0 0 0 0 0 0 0 0 0 0 0 0 0 0
0 0 0 0 0 0 0 0 0 0 0 0 0 0 0 0 0 0 0 0 0 0 0 0 0 0 0 0 0 0 0 0 0 0 0 0 0 0 0 0 0 0 0
0 0 0 0 0 0 0 0 0 0 0 0 0 0 0 0 0 0 0 0 0 0 0 0 0 0 0 0 0 0 0 0 0 0 0 0 0 0 0 0 0 0 0
0 0 0 0 0 0 0 0 0 0 0 0 0 0 0 0 0 0 0 0 0 0 0 0 0 0 0 0 0 0 0 0 0 0 0 0 0 0 0 0 0 0 0
0 0 0 0 0 0 0 0 0 0 0 0 0 0 0 0 0 0 0 0 0 0 0 0 0 0 0 0 0 0 0 0 0 0 0 0 0 0 0 0 0 0 0
0 0 0 0 0 0 0 0 0 0 0 0 0 0 0 0 0 0 0 0 0 0 0 0 0 0 0 0 0 0 0 0 0 0 0 0 0 0 0 0 0 0 0
0 0 0 0 0 0 0 0 0 0 0 0 0 0 0 0 0 0 0 0 0 0 0 0 0 0 0 0 0 0 0 0 0 0 0 0 0 0 0 0 0 0 0
0 0 0 0 0 0 0 0 0 0 0 0 0 0 0 0 0 0 0 0 0 0 0 0 0 0 0 0 0 0 0 0 0 0 0 0 0 0 0 0 0 0 0
Wind_Speed
7 6 6 5 6 5 6 6 7 7 7 7 6 6 6 5 3 2 4 6 2 0 1 3 4 4 3 2 2 2 3 4 4 4 5 5 5 6 6 5 4 3 3
7 6 7 6 6 6 6 6 8 6 6 6 7 6 5 5 4 4 2 6 6 2 0 2 4 4 4 3 3 2 3 4 4 5 5 5 5 5 5 4 4 3 3
9 8 7 7 7 7 8 7 8 6 6 6 7 7 6 5 5 5 4 2 5 7 4 2 2 3 4 4 4 3 3 4 4 4 5 5 5 5 5 4 4 4 3
11 8 7 7 7 6 6 6 6 7 7 7 7 7 6 5 7 5 5 5 3 3 7 5 2 2 3 3 3 3 3 4 4 4 5 5 5 5 4 4 4 4 5
11 9 7 7 7 6 6 7 7 8 8 7 6 5 6 5 6 6 7 6 5 4 3 8 5 3 2 2 3 3 3 4 4 4 5 5 4 4 4 4 4 4 5
10 8 7 8 7 6 6 7 8 7 6 6 7 6 6 6 6 6 6 5 5 6 4 5 6 7 5 3 3 3 3 4 4 4 4 4 4 4 3 3 3 4 4
9 8 6 7 7 7 7 8 6 8 7 6 6 6 7 8 8 6 6 6 7 5 6 6 4 4 6 7 4 3 3 4 4 4 4 4 3 3 3 2 2 2 2
10 8 9 7 7 6 7 7 6 5 5 5 5 5 6 7 7 8 7 7 8 7 7 7 7 6 4 5 8 5 3 3 4 4 4 4 4 3 2 2 1 1 1
10 9 10 8 8 8 7 7 7 7 5 5 5 5 5 6 4 6 9 8 8 6 7 7 7 7 6 5 7 9 6 3 4 4 4 4 4 3 3 2 2 1 1
9 10 10 10 9 8 8 8 8 7 6 5 4 4 4 2 3 3 5 7 8 8 8 6 7 7 7 5 4 6 8 5 5 4 4 4 4 4 3 3 2 2 2
6 7 8 8 9 8 9 10 9 9 7 7 5 4 4 3 5 4 3 4 5 6 7 7 6 6 6 6 5 7 9 7 6 5 5 5 5 4 4 4 3 3 4
2 4 5 7 8 7 9 9 9 11 9 8 7 5 5 4 4 4 5 4 3 3 4 4 5 4 5 5 7 8 9 8 7 6 5 5 5 5 4 4 4 4 4
0 1 3 4 5 6 7 7 8 9 10 10 9 7 6 5 3 4 4 4 3 3 3 3 4 3 4 5 5 9 9 9 9 8 7 5 5 5 5 5 5 5 6
2 1 1 1 2 3 5 6 6 7 8 9 10 9 7 6 6 5 4 4 4 4 4 4 2 3 3 4 3 7 8 11 9 9 8 7 6 6 5 5 5 5 5
3 3 2 2 1 1 2 4 4 5 5 7 7 8 7 5 5 5 5 5 5 4 5 4 2 2 2 2 3 6 7 10 10 9 8 7 7 6 6 6 5 5 5
5 5 4 3 3 2 1 1 2 3 4 4 3 5 5 4 4 4 4 4 3 3 2 3 3 2 2 2 3 5 3 8 7 7 7 7 7 6 6 6 6 6 6
6 6 6 5 4 3 2 1 1 2 4 4 4 4 5 4 4 3 3 3 3 3 3 2 2 2 3 3 4 4 4 5 6 7 6 6 5 5 5 5 5 5 6
8 7 6 6 6 5 4 3 1 1 2 3 4 5 5 4 5 4 4 4 4 4 3 3 3 3 3 2 3 4 3 3 4 7 5 4 3 2 1 1 2 3 4
9 9 8 7 6 5 4 4 2 1 1 2 2 3 4 4 4 4 4 4 4 4 3 3 3 3 3 3 4 4 4 4 4 7 7 7 7 6 5 4 3 2 3
10 10 9 9 8 7 6 5 3 3 2 1 1 2 2 3 3 4 4 5 4 4 4 4 4 4 3 3 4 5 5 4 4 5 6 7 9 10 9 8 7 5 4
10 10 9 9 9 8 8 7 4 3 3 2 1 0 1 1 0 2 3 4 5 5 5 4 4 4 4 4 4 4 5 5 5 4 5 5 5 5 6 8 8 9 8
10 10 9 9 9 9 11 10 6 3 2 2 2 1 1 3 4 4 1 1 1 3 5 4 4 4 5 4 4 4 6 6 4 3 5 5 5 6 7 7 10 11 11
9 9 9 9 9 11 13 11 8 4 3 3 2 1 0 1 2 5 6 6 4 4 2 1 4 4 5 5 6 6 5 5 5 4 5 5 5 7 7 9 13 14 14
8 8 8 9 8 11 14 12 8 4 4 4 3 1 1 1 1 3 7 7 7 6 2 2 5 5 5 5 4 5 8 8 7 4 4 4 4 5 7 8 14 16 16
7 7 8 8 9 10 14 13 9 4 3 4 4 3 1 2 2 1 6 9 9 8 10 14 14 12 12 9 4 5 6 6 6 4 3 4 5 5 6 6 10 16 16
7 6 7 8 8 9 13 14 11 3 4 3 3 3 5 4 2 2 5 8 9 9 9 10 9 9 9 7 3 3 3 4 6 4 3 4 5 5 4 4 5 5 8
Wind_Direction
228 218 216 206 215 208 195 215 222 206 214 214 215 217 201 193 191 165 118 124 115 17 230 196 182 180 183 186 185 176 167 170 167 161 157 152 152 152 151 151 151 154 157
236 230 229 213 216 215 212 215 217 206 215 212 214 216 227 209 213 176 159 146 152 152 243 233 209 192 187 193 202 202 188 182 180 177 175 174 173 172 171 173 180 191 203
237 234 235 222 215 212 214 217 213 213 215 209 214 220 220 226 231 206 176 189 161 162 177 223 233 204 197 202 208 204 196 189 187 191 190 188 189 189 191 199 210 223 233
238 234 234 234 225 218 215 209 218 209 210 216 217 210 214 202 228 221 205 197 189 167 167 175 210 203 199 201 202 202 196 189 188 194 193 194 198 202 210 221 232 245 255
244 233 230 233 227 218 217 213 212 214 217 218 227 222 225 209 216 217 223 211 183 195 170 148 179 183 174 188 191 194 193 190 188 194 195 197 202 210 219 232 248 257 260
247 240 232 229 225 216 216 217 211 214 228 225 233 225 223 220 218 219 232 222 217 201 191 167 181 168 168 170 178 189 191 185 182 186 190 194 200 206 216 234 256 260 258
237 234 234 233 221 215 213 212 207 210 218 226 234 228 222 226 229 209 226 227 221 208 204 192 198 175 163 170 179 180 178 173 172 174 174 175 176 184 194 208 235 246 252
229 227 224 225 218 210 207 204 198 204 210 217 226 234 232 220 220 228 223 230 237 204 220 211 193 187 188 172 135 157 148 161 165 166 164 158 159 163 170 184 195 203 208
224 223 225 221 215 208 205 198 193 201 203 211 227 225 230 228 215 213 219 221 231 228 220 222 216 200 188 186 160 166 165 171 180 178 170 164 165 166 164 162 171 173 166
225 219 221 220 212 208 206 203 196 195 191 197 213 237 253 284 225 214 208 222 224 224 229 219 224 219 202 201 163 135 166 184 194 195 188 180 179 184 184 187 186 182 162
227 220 219 218 214 212 212 209 199 198 196 193 189 194 221 246 252 248 231 211 208 216 223 226 220 222 212 207 195 172 172 192 202 208 208 198 192 192 194 199 199 185 172
227 220 217 217 218 216 214 210 205 203 203 202 195 189 191 200 211 222 235 239 234 215 212 221 232 222 222 220 209 153 177 196 206 211 211 206 203 202 206 204 202 202 203
14 205 209 218 217 217 215 209 207 206 205 204 203 201 202 206 191 198 218 230 237 231 217 213 222 227 225 229 204 166 193 200 207 211 208 202 202 207 219 226 226 222 224
11 34 130 196 209 211 213 212 213 209 207 208 210 206 205 206 200 200 205 203 214 219 221 216 186 209 220 230 175 188 198 194 205 209 208 203 201 202 214 232 245 249 249
33 43 59 77 111 189 212 212 212 207 205 209 209 207 203 201 198 204 208 208 209 212 211 200 191 180 214 236 154 217 218 177 195 204 206 203 201 203 214 227 238 249 255
33 44 52 64 70 82 123 187 196 195 193 190 193 196 195 194 192 194 198 200 207 211 205 173 182 173 186 206 187 238 213 147 187 199 202 202 204 207 217 231 240 246 250
28 35 36 43 54 59 66 82 145 175 181 171 168 172 174 168 173 180 186 188 192 198 199 163 156 183 197 204 179 210 195 195 169 176 188 193 199 209 228 243 253 256 257
32 35 41 40 39 41 46 48 48 174 172 160 159 165 166 166 173 178 183 189 190 192 191 179 170 184 190 183 181 180 180 182 154 130 138 139 141 142 179 282 285 277 273
36 36 39 41 37 33 37 42 44 46 94 137 160 175 175 174 176 183 188 190 191 186 187 189 167 160 167 169 170 161 161 149 135 126 119 106 91 83 69 52 28 356 328
38 36 36 35 34 32 26 26 35 45 50 84 151 161 178 185 187 189 191 189 187 179 182 185 169 162 155 168 178 163 144 128 118 113 97 97 97 87 74 60 50 41 31
38 37 36 35 34 31 24 13 16 32 35 30 35 88 193 197 238 212 205 191 187 181 178 179 167 160 157 166 168 157 136 126 100 104 107 97 99 83 77 67 56 51 54
36 36 33 33 35 31 23 23 8 41 45 32 17 349 207 195 188 182 160 104 171 188 177 174 171 164 149 145 144 146 146 150 121 104 101 84 80 74 59 53 47 55 59
35 32 30 28 31 27 22 26 17 24 57 57 49 26 338 115 186 158 148 150 116 59 8 192 152 140 139 143 151 150 145 121 107 121 112 94 87 83 74 59 55 58 59
32 29 28 26 27 26 20 20 4 40 63 60 59 51 38 103 137 166 160 146 123 104 95 132 111 103 105 124 130 122 114 111 106 106 121 105 102 93 86 72 61 62 60
28 30 30 24 23 25 19 15 358 44 61 65 63 63 45 111 67 267 158 135 119 101 72 68 69 78 68 54 64 129 140 138 123 113 109 115 127 112 94 92 82 74 67
25 29 35 30 27 24 19 15 2 25 49 61 71 84 64 62 84 308 158 142 132 125 123 115 109 115 106 93 23 120 138 140 135 124 132 140 157 149 117 84 75 83 83